Location: Palo Duro Canyon State Park
(34.9073°N, 101.6424°W)
Time: 20:58:57
(UTC-06:00)

Hubble Space Telescope - Visible Passes

Search period start: 14 November 2019 00:00
Search period end: 24 November 2019 00:00
Orbit: 536 x 540 km, 28.5° (Epoch: 14 November)

Date Brightness Start Highest point End Pass type
(mag) Time Alt. Az. Time Alt. Az. Time Alt. Az.
17 Nov 3.1 18:46:32 10° S 18:48:04 12° SSE 18:49:38 10° SE visible
17 Nov 3.9 20:25:12 10° SW 20:25:16 10° SW 20:25:16 10° SW visible
18 Nov 3.0 18:35:06 10° SSW 18:37:22 14° SSE 18:39:40 10° SE visible
18 Nov 3.5 20:14:26 10° SW 20:15:19 15° SW 20:15:19 15° SW visible
19 Nov 2.9 18:23:57 10° SSW 18:26:42 17° SSE 18:29:25 10° ESE visible
19 Nov 3.0 20:03:43 10° WSW 20:05:22 20° SW 20:05:22 20° SW visible
20 Nov 2.7 18:12:57 10° SSW 18:16:00 20° SSE 18:19:04 10° ESE visible
20 Nov 2.6 19:53:02 10° WSW 19:55:23 26° SSW 19:55:23 26° SSW visible
21 Nov 2.6 18:02:03 10° SW 18:05:20 23° SSE 18:08:37 10° ESE visible
21 Nov 2.2 19:42:22 10° WSW 19:45:24 31° SSW 19:45:24 31° SSW visible
22 Nov 1.9 19:31:43 10° WSW 19:35:26 33° S 19:35:26 33° S visible
23 Nov 1.9 19:21:06 10° WSW 19:24:48 32° S 19:25:30 30° SSE visible
